Watford City, ND

8:39 PM CST on February 13, 2016 (GMT -0600)
Watford City

Weather History for KS25 - November, 2012

Change the Weather History Date:

Friday, November 9, 2012

  Actual Average (KISN) Record (KISN)
Temperature  
Mean Temperature 22 °F 31 °F  
Max Temperature 26 °F 42 °F 67 °F (1912)
Min Temperature 17 °F 20 °F -12 °F (1945)
Degree Days  
Heating Degree Days 44 34  
Month to date heating degree days 287  
Since 1 July heating degree days 1314  
Cooling Degree Days 0 0  
Month to date cooling degree days 0  
Year to date cooling degree days 456  
Moisture  
Dew Point 22 °F    
Average Humidity 95    
Maximum Humidity 100    
Minimum Humidity 86    
Precipitation  
Precipitation 7.67 in 0.02 in 0.76 in (1911)
Month to date precipitation 0.23  
Year to date precipitation 13.33  
Sea Level Pressure  
Sea Level Pressure 29.96 in    
Wind  
Wind Speed 15 mph (ENE)    
Max Wind Speed 24 mph    
Max Gust Speed 32 mph    
Visibility 5 miles    
Events Rain , Snow    
T = Trace of Precipitation, MM = Missing Value Source: NWS Daily Summary

Daily Weather History Graph

Daily Weather History Graph

Search for Another Location

Airport or City:

Trip Planner

Search our weather history database for the weather conditions in past years. The results will help you decide how hot, cold, wet, or windy it might be!

Date:

Astronomy

Nov. 09, 2012 Rise Set
Actual Time 7:50 AM CST 5:22 PM CST
Civil Twilight 7:17 AM CST 5:55 PM CST
Nautical Twilight 6:40 AM CST 6:32 PM CST
Astronomical Twilight 6:03 AM CST 7:09 PM CST
Moon 2:32 AM CST (11/9) 2:54 PM CST (11/9)
Length of Visible Light 10h 38m
Length of Day
9h 32m
Waning Crescent, 23% of the Moon is Illuminated
Nov 9
Waning Crescent
Nov 13
New
Nov 20
First Quarter
Nov 28
Full
Dec 6
Last Quarter

Hourly Weather History & Observations

Time (CST) Temp. Windchill Dew Point Humidity Pressure Visibility Wind Dir Wind Speed Gust Speed Precip Events Conditions
12:15 AM 26.6 °F 15.2 °F 24.8 °F 93% 30.07 in 10.0 mi East 13.8 mph 25.3 mph N/A Rain Light Freezing Rain
12:35 AM 26.6 °F 14.3 °F 24.8 °F 93% 30.07 in 10.0 mi East 16.1 mph 21.9 mph N/A Rain Light Freezing Rain
12:55 AM 26.6 °F 15.2 °F 24.8 °F 93% 30.08 in 10.0 mi East 13.8 mph 23.0 mph N/A Rain Light Freezing Rain
1:15 AM 26.6 °F 14.3 °F 24.8 °F 93% 30.07 in 10.0 mi ENE 16.1 mph 21.9 mph N/A   Overcast
1:35 AM 26.6 °F 14.3 °F 24.8 °F 93% 30.06 in 10.0 mi East 16.1 mph 21.9 mph N/A   Unknown
1:55 AM 26.6 °F 13.1 °F 24.8 °F 93% 30.06 in 10.0 mi East 19.6 mph 25.3 mph N/A   Unknown
2:15 AM 26.6 °F 13.4 °F 24.8 °F 93% 30.05 in 10.0 mi East 18.4 mph 25.3 mph N/A   Overcast
2:35 AM 26.6 °F 13.4 °F 23.0 °F 86% 30.05 in 10.0 mi East 18.4 mph 25.3 mph N/A   Overcast
2:55 AM 26.6 °F 13.1 °F 23.0 °F 86% 30.04 in 10.0 mi East 19.6 mph 24.2 mph N/A   Overcast
3:15 AM 26.6 °F 14.3 °F 23.0 °F 86% 30.05 in 10.0 mi East 16.1 mph 28.8 mph N/A   Overcast
3:35 AM 24.8 °F 10.0 °F 23.0 °F 93% 30.04 in 10.0 mi East 21.9 mph 28.8 mph N/A   Overcast
3:55 AM 24.8 °F 11.1 °F 23.0 °F 93% 30.04 in 10.0 mi East 18.4 mph 25.3 mph N/A   Overcast
4:15 AM 24.8 °F 12.4 °F 23.0 °F 93% 30.04 in 10.0 mi East 15.0 mph 25.3 mph N/A   Overcast
4:35 AM 24.8 °F 11.9 °F 23.0 °F 93% 30.04 in 10.0 mi ESE 16.1 mph 23.0 mph N/A   Overcast
4:55 AM 24.8 °F 10.0 °F 23.0 °F 93% 30.02 in 10.0 mi East 21.9 mph 29.9 mph N/A   Overcast
5:15 AM 24.8 °F 10.0 °F 23.0 °F 93% 30.01 in 10.0 mi East 21.9 mph 27.6 mph N/A   Overcast
5:55 AM 24.8 °F 11.1 °F 23.0 °F 93% 30.01 in 10.0 mi East 18.4 mph 28.8 mph N/A   Overcast
6:15 AM 24.8 °F 9.6 °F 23.0 °F 93% 30.00 in 10.0 mi East 23.0 mph 28.8 mph N/A   Overcast
6:35 AM 24.8 °F 10.7 °F 23.0 °F 93% 30.00 in 10.0 mi East 19.6 mph 31.1 mph N/A   Overcast
6:55 AM 24.8 °F 10.7 °F 23.0 °F 93% 29.99 in 10.0 mi East 19.6 mph 31.1 mph N/A   Overcast
7:15 AM 24.8 °F 10.0 °F 23.0 °F 93% 29.98 in 10.0 mi East 21.9 mph 31.1 mph N/A   Overcast
7:35 AM 24.8 °F 10.0 °F 23.0 °F 93% 29.98 in 10.0 mi East 21.9 mph 28.8 mph N/A   Overcast
7:55 AM 24.8 °F 10.0 °F 23.0 °F 93% 29.99 in 10.0 mi East 21.9 mph 31.1 mph N/A   Overcast
8:15 AM 24.8 °F 11.1 °F 23.0 °F 93% 29.98 in 8.0 mi East 18.4 mph 24.2 mph N/A   Overcast
8:35 AM 24.8 °F 10.0 °F 23.0 °F 93% 29.99 in 4.0 mi East 21.9 mph 31.1 mph N/A   Overcast
8:55 AM 24.8 °F 10.3 °F 23.0 °F 93% 29.98 in 4.0 mi East 20.7 mph 26.5 mph N/A   Overcast
9:15 AM 24.8 °F 10.0 °F 24.8 °F 100% 29.98 in 3.0 mi ESE 21.9 mph 28.8 mph N/A   Overcast
9:35 AM 24.8 °F 9.6 °F 23.0 °F 93% 29.97 in 5.0 mi East 23.0 mph 32.2 mph N/A   Overcast
9:55 AM 24.8 °F 11.5 °F 24.8 °F 100% 29.98 in 3.0 mi East 17.3 mph 29.9 mph N/A   Overcast
10:15 AM 24.8 °F 10.0 °F 24.8 °F 100% 29.97 in 3.0 mi East 21.9 mph 28.8 mph N/A   Overcast
10:35 AM 24.8 °F 9.6 °F 24.8 °F 100% 29.96 in 3.0 mi East 23.0 mph 32.2 mph N/A   Overcast
10:55 AM 24.8 °F 11.1 °F 24.8 °F 100% 29.98 in 2.5 mi ESE 18.4 mph 32.2 mph N/A   Overcast
11:15 AM 24.8 °F 10.0 °F 24.8 °F 100% 29.96 in 2.0 mi East 21.9 mph 29.9 mph N/A   Overcast
11:35 AM 24.8 °F 10.3 °F 24.8 °F 100% 29.96 in 2.5 mi East 20.7 mph 32.2 mph N/A   Overcast
11:55 AM 24.8 °F 10.0 °F 24.8 °F 100% 29.96 in 3.0 mi East 21.9 mph 31.1 mph N/A   Overcast
12:15 PM 24.8 °F 10.3 °F 24.8 °F 100% 29.96 in 3.0 mi East 20.7 mph 32.2 mph N/A   Overcast
12:35 PM 24.8 °F - 24.8 °F 100% 29.95 in 2.0 mi North - - N/A   Overcast
12:55 PM 24.8 °F 10.3 °F 24.8 °F 100% 29.94 in 1.8 mi East 20.7 mph 28.8 mph N/A   Overcast
1:15 PM 26.6 °F 12.7 °F 24.8 °F 93% 29.93 in 1.5 mi East 20.7 mph 28.8 mph N/A Rain Light Freezing Rain
1:35 PM 26.6 °F 12.4 °F 24.8 °F 93% 29.92 in 1.2 mi East 21.9 mph 25.3 mph N/A Rain Light Freezing Rain
1:55 PM 26.6 °F 21.2 °F 24.8 °F 93% 29.92 in 1.2 mi North 4.6 mph - N/A Rain Light Freezing Rain
2:15 PM 26.6 °F 21.2 °F 24.8 °F 93% 29.91 in 1.5 mi North 4.6 mph - N/A Rain Light Freezing Rain
2:35 PM 24.8 °F 19.1 °F 24.8 °F 100% 29.91 in 1.5 mi North 4.6 mph - N/A Rain Light Freezing Rain
2:55 PM 24.8 °F 9.3 °F 24.8 °F 100% 29.90 in 1.5 mi East 24.2 mph 32.2 mph N/A   Overcast
3:15 PM 24.8 °F 19.1 °F 24.8 °F 100% 29.89 in 1.5 mi North 4.6 mph 19.6 mph N/A   Overcast
3:35 PM 24.8 °F 13.4 °F 24.8 °F 100% 29.90 in 2.0 mi ENE 12.7 mph 23.0 mph N/A   Overcast
3:55 PM 24.8 °F 11.9 °F 23.0 °F 93% 29.90 in 2.0 mi East 16.1 mph 26.5 mph N/A   Overcast
4:15 PM 24.8 °F 19.1 °F 23.0 °F 93% 29.90 in 1.8 mi North 4.6 mph - N/A   Overcast
4:35 PM 24.8 °F 19.1 °F 23.0 °F 93% 29.90 in 1.5 mi North 4.6 mph - N/A   Overcast
4:55 PM 23.0 °F 17.0 °F 23.0 °F 100% 29.90 in 1.5 mi North 4.6 mph - N/A   Overcast
5:15 PM 23.0 °F 17.0 °F 21.2 °F 93% 29.90 in 1.5 mi North 4.6 mph - N/A   Overcast
5:35 PM 21.2 °F 14.9 °F 19.4 °F 93% 29.89 in 2.5 mi North 4.6 mph - N/A   Overcast
5:55 PM 21.2 °F 14.9 °F 19.4 °F 93% 29.89 in 3.0 mi North 4.6 mph - N/A   Overcast
6:15 PM 21.2 °F 14.9 °F 19.4 °F 93% 29.90 in 3.0 mi North 4.6 mph - N/A   Overcast
6:35 PM 19.4 °F 12.8 °F 19.4 °F 100% 29.91 in 3.0 mi North 4.6 mph - N/A   Overcast
6:55 PM 19.4 °F 12.8 °F 19.4 °F 100% 29.91 in 3.0 mi North 4.6 mph - N/A   Overcast
7:15 PM 19.4 °F 12.8 °F 19.4 °F 100% 29.90 in 3.0 mi North 4.6 mph - N/A   Overcast
7:35 PM 19.4 °F 12.8 °F 19.4 °F 100% 29.89 in 2.0 mi North 4.6 mph - 0.02 in Snow Light Snow
7:55 PM 19.4 °F 12.8 °F 19.4 °F 100% 29.88 in 1.8 mi North 4.6 mph - 0.09 in Snow Light Snow
8:15 PM 19.4 °F 12.8 °F 19.4 °F 100% 29.91 in 0.5 mi North 4.6 mph - 0.19 in Snow Snow
8:35 PM 19.4 °F 12.8 °F 19.4 °F 100% 29.94 in 0.5 mi North 4.6 mph - 0.72 in Snow Snow
8:55 PM 19.4 °F 12.8 °F 17.6 °F 93% 29.94 in 0.2 mi North 4.6 mph - 2.77 in Snow Heavy Snow
9:15 PM 19.4 °F 12.8 °F 17.6 °F 93% 29.93 in 0.5 mi North 4.6 mph - 0.58 in Snow Snow
9:35 PM 19.4 °F 12.8 °F 17.6 °F 93% 29.91 in 0.8 mi North 4.6 mph - 0.97 in Snow Light Snow
9:55 PM 19.4 °F 12.8 °F 17.6 °F 93% 29.89 in 2.0 mi North 4.6 mph - 1.44 in Snow Light Snow
10:15 PM 19.4 °F 12.8 °F 17.6 °F 93% 29.90 in 0.5 mi North 4.6 mph - 1.21 in Snow Snow
10:35 PM 19.4 °F 12.8 °F 17.6 °F 93% 29.89 in 1.2 mi North 4.6 mph - 2.77 in Snow Light Snow
10:55 PM 19.4 °F 12.8 °F 17.6 °F 93% 29.88 in 2.5 mi North 4.6 mph - 2.83 in Snow Light Snow
11:15 PM 17.6 °F 10.7 °F 15.8 °F 93% 29.87 in 1.8 mi North 4.6 mph - 0.10 in Snow Light Snow
11:35 PM 17.6 °F 10.7 °F 15.8 °F 93% 29.87 in 1.2 mi North 4.6 mph - 0.23 in Snow Light Snow
11:55 PM 17.6 °F 10.7 °F 15.8 °F 93% 29.87 in 1.2 mi North 4.6 mph - 0.54 in Snow Light Snow